Regional Weather Roundup
Issued by NWS

Home | Current Version | Previous Version | Text Only | Print | Product List | Glossary On
Versions: 1 2 3 4 5 6 7 8 9 10 11 12 13 14 15 16 17 18 19 20 21 22 23 24 25 26 27 28 29 30 31 32 33 34 35 36 37 38 39 40 41 42 43 44 45 46 47 48 49 50
000
ASUS45 KABQ 270810
RWRNM
WEATHER ROUNDUP FOR NEW MEXICO
NATIONAL WEATHER SERVICE ALBUQUERQUE NM
100 AM MST THU NOV 27 2014

NOTE: "FAIR" MEANS FEW OR NO CLOUDS BELOW 12,000 FEET AGL WITH NO
       SIGNIFICANT WEATHER OR OBSTRUCTIONS TO VISION.

      THIS PRODUCT IS RELEASED AS TWO VERSIONS.  ONE VERSION NEAR
      THE TOP OF THE HOUR CONTAINING PRELIMINARY DATA FROM ALBUQUERQUE
      AND OTHER STATIONS.  A FINAL VERSION WITH ADDITIONAL DATA IS
      ISSUED ABOUT 10 MINUTES AFTER THE HOUR.

NMZ501-503-504-510>518-270900-
NORTHWEST PLATEAU/NORTHCENTRAL MOUNTAINS

CITY           SKY/WX    TMP DP  RH WIND       PRES   REMARKS
FARMINGTON     CLEAR     32  20  61 E8        30.45S WCI  25
LOS ALAMOS     PTCLDY    40  22  47 CALM      30.45F
SANTA FE       CLEAR     36  21  54 N12       30.42F WCI  28
TAOS           PTCLDY    25  19  80 N7        30.48R WCI  17
ANGEL FIRE     FAIR      11   8  87 CALM      30.50R

$$
NMZ402-403-502-505>509-270900-
WESTCENTRAL MOUNTAINS/SOUTHWEST MOUNTAINS

CITY           SKY/WX    TMP DP  RH WIND       PRES   REMARKS
GALLUP         CLEAR     25  13  60 NE3       30.49S
GRANTS         CLEAR     19  10  68 NW8       30.50F WCI   9
SILVER CITY    CLEAR     36  18  48 NW6       30.41S WCI  31

$$
NMZ407-409-411-412-270900-
SOUTHERN DESERTS

CITY           SKY/WX    TMP DP  RH WIND       PRES   REMARKS
LORDSBURG      FAIR      32  14  47 CALM      30.36S
DEMING         CLEAR     34  17  50 CALM      30.37R
LAS CRUCES     CLEAR     38  18  43 NW8       30.37S WCI  32
HOLLOMAN AFB   PTCLDY    36  19  48 CALM      30.35S
ALAMOGORDO     PTCLDY    39  19  45 MISG      30.36S
T OR C         CLEAR     42  20  41 SW3       30.39R

$$
NMZ519>523-270900-
CENTRAL VALLEYS/CENTRAL HIGHLANDS

CITY           SKY/WX    TMP DP  RH WIND       PRES   REMARKS
ALBUQUERQUE    CLEAR     37  22  54 E6        30.43S WCI  32
DOUBLE EAGLE   PTCLDY    38  21  48 NW10      30.44S WCI  32
MORIARTY ARPT  FAIR      26  21  80 N7        30.43F WCI  19
CLINES CORNERS CLEAR     32  21  64 W10       30.41R WCI  24
BELEN          FAIR      34  19  55 N6        30.43S WCI  29
SOCORRO        FAIR      39  21  49 N8        30.40F WCI  33

$$
NMZ524>526-539-540-270900-
SOUTHCENTRAL MOUNTAINS

CITY           SKY/WX    TMP DP  RH WIND       PRES   REMARKS
RUIDOSO        CLEAR     43  19  39 N6        30.43S

$$
NMZ527>531-270900-
NORTHEAST HIGHLANDS/NORTHEAST PLAINS

CITY           SKY/WX    TMP DP  RH WIND       PRES   REMARKS
LAS VEGAS      CLEAR     31  20  63 S13       30.39S WCI  21
RATON          PTCLDY    27  20  75 NW3       30.36S
CLAYTON        PTCLDY    29  22  75 SW12      30.35F WCI  19

$$
NMZ532>537-270900-
EASTCENTRAL PLAINS

CITY           SKY/WX    TMP DP  RH WIND       PRES   REMARKS
TUCUMCARI      PTCLDY    28  23  81 N7        30.38R WCI  21
CANNON AFB     PTCLDY    32  23  71 SE6       30.39S WCI  26
CLOVIS AIRPORT PTCLDY    30  21  69 S6        30.39S WCI  24

$$
NMZ028-029-538-270900-
SOUTHEAST PLAINS

CITY           SKY/WX    TMP DP  RH WIND       PRES   REMARKS
ROSWELL        PTCLDY    36  27  69 SW5       30.38R WCI  32
CARLSBAD       CLEAR     37  26  64 S9        30.38R WCI  30
HOBBS          CLEAR     37  28  70 E7        30.41S WCI  32


$$


USA.gov is the U.S. government's official web portal to all federal, state and local government web resources and services.